TimeWET,TemperatureF,Dew PointF,Humidity,Sea Level PressureIn,VisibilityMPH,Wind Direction,Wind SpeedMPH,Gust SpeedMPH,PrecipitationIn,Events,Conditions,WindDirDegrees,DateUTC
12:00 AM,52,50,92,29.93,5,Calm,Calm,,,,Scattered Clouds,,2012-10-17 00:00:00
12:00 AM,51.8,50.0,94,29.92,5.0,Calm,Calm,-,N/A,,Partly Cloudy,0,2012-10-17 00:00:00
12:30 AM,51.8,50.0,94,29.92,5.0,Calm,Calm,-,N/A,,Partly Cloudy,0,2012-10-17 00:30:00
1:00 AM,51.8,50.0,94,29.89,5.0,Calm,Calm,-,N/A,,Partly Cloudy,0,2012-10-17 01:00:00
1:30 AM,51.8,50.0,94,29.89,5.0,Calm,Calm,-,N/A,,Partly Cloudy,0,2012-10-17 01:30:00
2:00 AM,53.6,51.8,94,29.89,5.0,Calm,Calm,-,N/A,,Partly Cloudy,0,2012-10-17 02:00:00
3:00 AM,56,54,90,29.88,5,SSE,2.3,,,,Scattered Clouds,150,2012-10-17 03:00:00
3:00 AM,55.4,53.6,94,29.86,5.0,Variable,2.3,-,N/A,,Partly Cloudy,0,2012-10-17 03:00:00
3:30 AM,57.2,55.4,94,29.86,5.0,SSE,4.6,-,N/A,,Partly Cloudy,150,2012-10-17 03:30:00
4:00 AM,55.4,53.6,94,29.86,5.0,SE,3.5,-,N/A,,Partly Cloudy,140,2012-10-17 04:00:00
4:30 AM,55.4,53.6,94,29.86,-9999.0,SSE,3.5,-,N/A,,Unknown,150,2012-10-17 04:30:00
5:00 AM,57.2,53.6,88,29.86,-9999.0,SE,4.6,-,N/A,,Unknown,140,2012-10-17 05:00:00
5:30 AM,57.2,53.6,88,29.86,3.7,SE,3.5,-,N/A,,Partly Cloudy,140,2012-10-17 05:30:00
6:00 AM,56,52,81,29.88,4,Calm,Calm,,,,Scattered Clouds,,2012-10-17 06:00:00
6:00 AM,55.4,51.8,88,29.86,3.7,Calm,Calm,-,N/A,,Partly Cloudy,0,2012-10-17 06:00:00
6:30 AM,57.2,53.6,88,29.86,3.7,SE,3.5,-,N/A,,Partly Cloudy,140,2012-10-17 06:30:00
7:00 AM,55.4,53.6,94,29.86,3.7,SSE,4.6,-,N/A,,Partly Cloudy,150,2012-10-17 07:00:00
7:30 AM,59.0,55.4,88,29.89,3.7,SSE,3.5,-,N/A,,Scattered Clouds,150,2012-10-17 07:30:00
8:00 AM,64.4,55.4,73,29.89,3.7,Calm,Calm,-,N/A,,Scattered Clouds,0,2012-10-17 08:00:00
8:30 AM,68.0,53.6,60,29.89,5.0,Calm,Calm,-,N/A,,Unknown,0,2012-10-17 08:30:00
9:00 AM,72,49,32,29.91,5,Calm,Calm,,,,Clear,,2012-10-17 09:00:00
9:00 AM,71.6,48.2,43,29.89,5.0,Calm,Calm,-,N/A,,Unknown,0,2012-10-17 09:00:00
9:30 AM,71.6,53.6,53,29.92,5.0,Calm,Calm,-,N/A,,Unknown,0,2012-10-17 09:30:00
10:00 AM,71.6,53.6,53,29.89,3.1,North,4.6,-,N/A,,Unknown,350,2012-10-17 10:00:00
10:30 AM,71.6,50.0,46,29.89,3.1,Calm,Calm,-,N/A,,Unknown,0,2012-10-17 10:30:00
11:00 AM,73.4,51.8,47,29.89,3.1,Calm,Calm,-,N/A,,Unknown,0,2012-10-17 11:00:00
11:30 AM,73.4,55.4,53,29.89,3.1,NNW,8.1,-,N/A,,Unknown,330,2012-10-17 11:30:00
12:00 PM,73,56,45,29.88,4,NNW,8.1,,,,Clear,330,2012-10-17 12:00:00
12:00 PM,73.4,53.6,50,29.86,3.1,NNW,8.1,-,N/A,,Unknown,340,2012-10-17 12:00:00
12:30 PM,73.4,53.6,50,29.86,3.1,North,6.9,-,N/A,,Unknown,360,2012-10-17 12:30:00
1:00 PM,75.2,55.4,50,29.83,3.7,NNW,5.8,-,N/A,,Unknown,340,2012-10-17 13:00:00
1:30 PM,75.2,57.2,53,29.83,3.7,Calm,Calm,-,N/A,,Unknown,0,2012-10-17 13:30:00
2:00 PM,75.2,59.0,57,29.83,3.7,North,6.9,-,N/A,,Unknown,350,2012-10-17 14:00:00
2:30 PM,73.4,60.8,65,29.83,3.7,NNW,8.1,-,N/A,,Unknown,330,2012-10-17 14:30:00
3:00 PM,74,61,55,29.81,4,North,6.9,,,,Clear,350,2012-10-17 15:00:00
3:00 PM,73.4,60.8,65,29.80,3.7,North,6.9,-,N/A,,Unknown,350,2012-10-17 15:00:00
3:30 PM,73.4,60.8,65,29.80,3.7,North,5.8,-,N/A,,Unknown,350,2012-10-17 15:30:00
4:00 PM,73.4,59.0,61,29.80,3.7,North,4.6,-,N/A,,Unknown,350,2012-10-17 16:00:00
4:30 PM,73.4,55.4,53,29.80,3.7,NNW,5.8,-,N/A,,Unknown,340,2012-10-17 16:30:00
5:00 PM,71.6,60.8,69,29.80,3.7,NW,6.9,-,N/A,,Scattered Clouds,320,2012-10-17 17:00:00
5:30 PM,69.8,62.6,78,29.80,3.7,North,5.8,-,N/A,,Mostly Cloudy,350,2012-10-17 17:30:00
6:00 PM,68,63,80,29.80,4,North,4.6,,,,Scattered Clouds,350,2012-10-17 18:00:00
6:00 PM,68.0,62.6,83,29.80,3.7,North,4.6,-,N/A,,Mostly Cloudy,350,2012-10-17 18:00:00
6:30 PM,66.2,62.6,88,29.80,3.7,NNW,1.2,-,N/A,,Mostly Cloudy,340,2012-10-17 18:30:00
7:00 PM,66.2,62.6,88,29.83,3.7,Calm,Calm,-,N/A,,Mostly Cloudy,0,2012-10-17 19:00:00
7:30 PM,62.6,60.8,94,29.83,3.7,Calm,Calm,-,N/A,,Mostly Cloudy,0,2012-10-17 19:30:00
8:00 PM,64.4,60.8,88,29.83,3.7,Calm,Calm,-,N/A,,Mostly Cloudy,0,2012-10-17 20:00:00
8:30 PM,60.8,59.0,94,29.83,3.7,Calm,Calm,-,N/A,,Mostly Cloudy,0,2012-10-17 20:30:00
9:00 PM,60,58,93,29.83,4,Calm,Calm,,,,Scattered Clouds,,2012-10-17 21:00:00
9:00 PM,60.8,59.0,94,29.83,3.7,Calm,Calm,-,N/A,,Mostly Cloudy,0,2012-10-17 21:00:00
9:30 PM,59.0,57.2,94,29.83,3.7,Calm,Calm,-,N/A,,Mostly Cloudy,0,2012-10-17 21:30:00
10:00 PM,59.0,57.2,94,29.83,3.7,Calm,Calm,-,N/A,,Mostly Cloudy,0,2012-10-17 22:00:00
10:30 PM,60.8,59.0,94,29.83,3.7,Calm,Calm,-,N/A,,Mostly Cloudy,0,2012-10-17 22:30:00
11:00 PM,59.0,57.2,94,29.83,3.7,Calm,Calm,-,N/A,,Mostly Cloudy,0,2012-10-17 23:00:00
11:30 PM,62.6,60.8,94,29.83,3.7,Calm,Calm,-,N/A,,Mostly Cloudy,0,2012-10-17 23:30:00